Location: *
(57.8420°S, 159.8600°W)
Time: 04:41:35
(UTC+00:00)

Cosmos 1937 Rocket - Pass Details

Date: 18 May 2021
Orbit: 745 x 781 km, 74.0° (Epoch: 20 June)

Event Time Altitude Azimuth Distance (km) Brightness Sun altitude
Rises 05:25:29 0° 211° (SSW) 3,274 7.2 -23.1°
Reaches altitude 10° 05:27:53 10° 212° (SSW) 2,337 6.4 -23.4°
Maximum altitude 05:33:12 79° 297° (WNW) 790 3.5 -24.1°
Enters shadow 05:35:21 36° 17° (NNE) 1,190 4.3 -24.4°
